Weather History for Nuiqsut, AK

Change the Weather History Date:

Saturday, January 25, 2014

  Actual Average (PAKU) Record (PAKU)
Temperature  
Mean Temperature 0 °F -  
Max Temperature 1 °F -12 °F 31 °F (1991)
Min Temperature -2 °F -20 °F -50 °F (2012)
Degree Days  
Heating Degree Days 66    
Moisture  
Dew Point -3 °F    
Average Humidity 90    
Maximum Humidity 95    
Minimum Humidity 85    
Precipitation  
Precipitation 0.00 in - - ()
Sea Level Pressure  
Sea Level Pressure 30.20 in    
Wind  
Wind Speed 20 mph (ENE)    
Max Wind Speed 24 mph    
Max Gust Speed -    
Visibility 6 miles    
Events      
Averages and records for this station are not official NWS values.
T = Trace of Precipitation, MM = Missing Value Source: NWS Daily Summary

Daily Weather History Graph

Daily Weather History Graph

Search for Another Location

Airport:

Trip Planner

Search our weather history database for the weather conditions in past years. The results will help you decide how hot, cold, wet, or windy it might be!

Date:

Astronomy

Jan. 25, 2014 Rise Set
Actual Time 11:33 AM AKST 2:59 PM AKST
Civil Twilight 9:50 AM AKST 4:43 PM AKST
Nautical Twilight 8:26 AM AKST 6:07 PM AKST
Astronomical Twilight 7:12 AM AKST 7:21 PM AKST
Moon 6:02 AM AKST (1/25) 10:16 AM AKST (1/25)
Length of Visible Light 6h 53m
Length of Day
3h 25m
Waning Crescent, 32% of the Moon is Illuminated
Jan 25
Waning Crescent
Jan 30
New
Feb 6
First Quarter
Feb 14
Full
Feb 22
Last Quarter

Hourly Weather History & Observations

Time (AKST) Temp. Windchill Dew Point Humidity Pressure Visibility Wind Dir Wind Speed Gust Speed Precip Events Conditions
12:13 AM -2.9 °F -26.7 °F -5.1 °F 90% 30.16 in 2.0 mi East 21.9 mph - N/A   Overcast
12:44 AM -2.0 °F -25.0 °F -5.1 °F 87% 30.18 in 3.0 mi ENE 20.7 mph - N/A   Overcast
12:51 AM -2.2 °F -25.7 °F -5.8 °F 85% 30.18 in 2.0 mi East 21.9 mph - N/A   Overcast
12:53 AM -2.0 °F -25.5 °F -4.0 °F 91% 30.19 in 2.0 mi East 21.9 mph - N/A   Overcast
1:25 AM -2.9 °F -26.7 °F -5.1 °F 90% 30.18 in 2.0 mi East 21.9 mph - N/A   Overcast
1:35 AM -2.0 °F -26.0 °F -5.1 °F 87% 30.17 in 2.5 mi East 23.0 mph - N/A   Overcast
1:53 AM -2.9 °F -26.1 °F -4.0 °F 95% 30.19 in 2.5 mi East 20.7 mph - N/A   Overcast
2:33 AM -2.9 °F -26.7 °F -5.1 °F 90% 30.19 in 1.8 mi ENE 21.9 mph - N/A   Overcast
2:53 AM -2.9 °F -27.2 °F -5.1 °F 90% 30.19 in 1.8 mi ENE 23.0 mph - N/A   Overcast
3:08 AM -2.0 °F -25.5 °F -4.0 °F 91% 30.19 in 2.0 mi East 21.9 mph - N/A   Overcast
3:25 AM -2.0 °F -26.0 °F -4.0 °F 91% 30.19 in 2.0 mi East 23.0 mph - N/A   Overcast
3:32 AM -2.0 °F -25.5 °F -4.0 °F 91% 30.19 in 2.5 mi East 21.9 mph - N/A   Overcast
3:45 AM -2.0 °F -25.5 °F -4.0 °F 91% 30.19 in 3.0 mi ENE 21.9 mph - N/A   Overcast
3:53 AM -2.0 °F -25.0 °F -4.0 °F 91% 30.20 in 3.0 mi East 20.7 mph - N/A   Overcast
4:51 AM -0.4 °F -22.8 °F -2.2 °F 92% 30.20 in 4.0 mi East 20.7 mph - N/A   Overcast
4:53 AM -0.9 °F -24.1 °F -2.9 °F 91% 30.21 in 5.0 mi East 21.9 mph - N/A   Overcast
5:17 AM -0.0 °F -23.3 °F -2.0 °F 91% 30.20 in 6.0 mi East 23.0 mph - N/A   Overcast
5:53 AM -0.0 °F -22.9 °F -2.0 °F 91% 30.22 in 9.0 mi East 21.9 mph - N/A   Overcast
6:53 AM -0.0 °F -23.3 °F -2.0 °F 91% 30.20 in 8.0 mi East 23.0 mph - N/A   Overcast
7:32 AM 1.0 °F -22.4 °F -2.0 °F 87% 30.19 in 8.0 mi East 24.2 mph - N/A   Overcast
7:50 AM 1.4 °F -21.4 °F -0.4 °F 92% 30.20 in 5.0 mi East 23.0 mph - N/A   Overcast
7:53 AM 1.0 °F -22.4 °F -0.9 °F 91% 30.21 in 6.0 mi East 24.2 mph - N/A   Overcast
8:53 AM -0.0 °F -21.8 °F -2.0 °F 91% 30.21 in 8.0 mi East 19.6 mph - N/A   Overcast
9:09 AM -0.0 °F -23.3 °F -2.0 °F 91% 30.20 in 10.0 mi East 23.0 mph - N/A   Mostly Cloudy
9:53 AM -0.0 °F -22.9 °F -2.9 °F 88% 30.20 in 9.0 mi East 21.9 mph - N/A   Partly Cloudy
10:53 AM -0.0 °F -21.3 °F -2.0 °F 91% 30.21 in 10.0 mi East 18.4 mph - N/A   Overcast
11:53 AM -0.0 °F -20.1 °F -2.0 °F 91% 30.21 in 10.0 mi East 16.1 mph - N/A   Overcast
12:53 PM 1.0 °F -17.3 °F -2.0 °F 87% 30.21 in 10.0 mi East 13.8 mph - N/A   Partly Cloudy
1:53 PM 1.0 °F -14.9 °F -0.9 °F 91% 30.21 in 10.0 mi East 10.4 mph - N/A   Clear
2:53 PM -0.0 °F -14.2 °F -2.0 °F 91% 30.21 in 10.0 mi ENE 8.1 mph - N/A   Clear
3:53 PM -0.0 °F -14.2 °F -2.0 °F 91% 30.22 in 10.0 mi NE 8.1 mph - N/A   Clear
4:53 PM -0.9 °F -16.4 °F -2.9 °F 91% 30.21 in 10.0 mi ENE 9.2 mph - N/A   Clear
5:53 PM -2.0 °F -19.6 °F -4.0 °F 91% 30.21 in 10.0 mi ENE 11.5 mph - N/A   Partly Cloudy
6:53 PM -2.9 °F -15.0 °F -5.1 °F 90% 30.20 in 10.0 mi ENE 5.8 mph - N/A   Clear
7:53 PM -2.9 °F -18.8 °F -5.1 °F 90% 30.20 in 10.0 mi ENE 9.2 mph - N/A   Clear
8:53 PM -2.9 °F -15.0 °F -5.1 °F 90% 30.20 in 10.0 mi NE 5.8 mph - N/A   Clear
9:53 PM -2.9 °F -18.8 °F -5.1 °F 90% 30.19 in 10.0 mi NE 9.2 mph - N/A   Clear
10:53 PM -2.9 °F -19.8 °F -5.1 °F 90% 30.18 in 10.0 mi ENE 10.4 mph - N/A   Clear
11:53 PM -2.0 °F -21.2 °F -5.1 °F 87% 30.17 in 10.0 mi ENE 13.8 mph - N/A   Clear